Back to catalog

FENGYUN 1C DEB

LostLEO
NORAD 37035·DEBRIS·🇨🇳 China

Launched May 10, 1999 from Taiyuan Satellite Launch Center

Loading…

Next Passes (next 24 hours)

TLE

StaleSource: Space-Track

Epoch: Apr 24, 2023, 06:50 UTC

1 37035U 99025EDT 23114.28527291  .00038204  00000-0  18208-1 0  9997
2 37035 100.6474 125.0993 0058292 267.6230  91.8264 14.18186552801238

Track FENGYUN 1C DEB in real time with AllMySat

Download on the App Store